This demonstration page uses our WeatherBlox Daily Observations layout. Learn more.

Left ArrowRight Arrow

34.74481, -87.66753

Hourly Observations for October 15, 2019

Temp ( °F °C ) Dew Point ( °F °C ) Humidity (%) Winds ( mph kmh ) Pressure ( in mb ) Visibility ( mi km ) Precip ( " mm )
12:49 am 00:49 Cloudy 66 19 55 13 68 68 Calm 30.07 1018 10 16 0.00 0.00
12:53 am 00:53 Cloudy 66 18.9 56 13.3 70 70 Calm 30.07 1018 10 16 0.00 0.00
1:01 am 01:01 Cloudy 67 19.4 56 13.3 68 68 Calm 30.08 1019 10 16 0.00 0.00
1:53 am 01:53 Cloudy 66 18.9 57 13.9 73 73 Calm 30.06 1018 10 16 0.00 0.00
2:53 am 02:53 Cloudy 66 18.9 58 14.4 75 75 Calm 30.05 1018 10 16 0.00 0.00
3:53 am 03:53 Mostly Cloudy 64 17.8 58 14.4 81 81 Calm 30.04 1017 10 16 0.00 0.00
4:53 am 04:53 Clear 62 16.7 56 13.3 80 80 Calm 30.03 1017 10 16 0.00 0.00
5:53 am 05:53 Cloudy 62 16.7 57 13.9 84 84 Calm 30.05 1018 10 16 0.00 0.00
6:53 am 06:53 Cloudy 63 17.2 57 13.9 81 81 Calm 30.04 1017 10 16 0.00 0.00
7:53 am 07:53 Sunny 64 17.8 56 13.3 75 75 SE 3 6 30.03 1017 10 16 0.00 0.00
8:53 am 08:53 Sunny 68 20 55 12.8 63 63 SE 6 9 30.02 1017 10 16 0.00 0.00
9:53 am 09:53 Partly Cloudy 72 22.2 53 11.7 52 52 SSE 5 7 30.03 1017 10 16 0.00 0.00
10:53 am 10:53 Sunny 73 22.8 57 13.9 57 57 SSE 3 6 30.01 1016 10 16 0.00 0.00
11:53 am 11:53 Mostly Cloudy 74 23.3 59 15 60 60 SSW 6 9 30.01 1016 10 16 0.00 0.00
12:33 pm 12:33 Cloudy 74 23.3 59 15 60 60 SSW 8 13 30.00 1016 10 16 0.00 0.00
12:53 pm 12:53 Cloudy 74 23.3 60 15.6 62 62 SSW 7 11 30.00 1016 10 16 0.00 0.00
1:53 pm 13:53 Mostly Cloudy 75 23.9 61 16.1 62 62 S 6 9 29.97 1015 10 16 0.00 0.00
2:34 pm 14:34 Cloudy 74 23.3 61 16.1 64 64 SSW 6 9 29.94 1014 10 16 0.00 0.00
2:46 pm 14:46 Cloudy 74 23.3 61 16.1 64 64 S 3 6 29.93 1014 10 16 0.00 0.00
2:53 pm 14:53 Mostly Cloudy 75 23.9 61 16.1 62 62 S 7 11 29.92 1013 10 16 0.00 0.00
3:25 pm 15:25 Mostly Cloudy 74 23.3 62 16.7 67 67 S 5 7 29.92 1013 10 16 0.00 0.00
3:53 pm 15:53 Cloudy 74 23.3 63 17.2 69 69 SW 3 6 29.93 1013 10 16 0.00 0.00
4:53 pm 16:53 Cloudy 73 22.8 63 17.2 71 71 SSE 5 7 29.89 1012 10 16 0.00 0.00
5:15 pm 17:15 Mostly Cloudy 73 22.8 64 17.8 74 74 SSE 9 15 29.86 1011 10 16 0.00 0.00
5:40 pm 17:40 Mostly Cloudy 72 22.2 64 17.8 76 76 S 3 6 29.89 1012 10 16 0.00 0.00
5:53 pm 17:53 Cloudy 72 22.2 64 17.8 76 76 SSE 3 6 29.88 1012 10 16 0.00 0.00
6:31 pm 18:31 Mostly Cloudy 71 21.7 64 17.8 79 79 SSW 7 11 29.88 1012 10 16 0.00 0.00
6:53 pm 18:53 Cloudy 71 21.7 65 18.3 81 81 S 5 7 29.88 1012 10 16 0.00 0.00
7:53 pm 19:53 Cloudy 70 21.1 65 18.3 84 84 Calm 29.89 1012 10 16 0.00 0.00
8:35 pm 20:35 Cloudy 70 21.1 65 18.3 84 84 Calm 29.90 1012 10 16 0.00 0.00
8:53 pm 20:53 Cloudy 69 20.6 65 18.3 87 87 Calm 29.89 1012 10 16 0.00 0.00
9:12 pm 21:12 Cloudy 69 20.6 64 17.8 84 84 SSE 3 6 29.88 1012 10 16 0.00 0.00
9:53 pm 21:53 Cloudy 69 20.6 65 18.3 87 87 Calm 29.87 1012 10 16 0.00 0.00
10:00 pm 22:00 Cloudy 69 20.6 65 18.3 87 87 Calm 29.89 1012 10 16 0.00 0.00
10:29 pm 22:29 Cloudy with Light Rain 68 20 65 18.3 90 90 Calm 29.88 1012 6 10 0.01 0.25
10:53 pm 22:53 Cloudy with Mist and Fog 68 20 65 18.3 90 90 Calm 29.87 1011 4 6 0.02 0.51
11:02 pm 23:02 Cloudy with Light Rain 68 20 65 18.3 90 90 Calm 29.88 1012 5 8 0.00 0.00
11:34 pm 23:34 Cloudy with Light Rain 68 20 65 18.3 90 90 Calm 29.87 1011 3 5 0.01 0.25
11:40 pm 23:40 Cloudy with Light Rain 68 20 65 18.3 90 90 Calm 29.87 1011 3 5 0.01 0.25
11:53 pm 23:53 Cloudy with Mist and Fog 68 20 65 18.3 90 90 Calm 29.86 1011 4 6 0.02 0.51

Powered by AerisWeather